Tracking 18673 objects as of 27-June-2017
HD Live streaming from Space Station
objects crossing your sky now

CRRES DEB (CANISTER)

Track CRRES DEB (CANISTER) now!


NORAD ID: 27051
Int'l Code: 1990-065U
Perigee: 285.7 km
Apogee: 30,230.6 km
Inclination: 17.9 °
Period: 527.6 minutes
Semi major axis: 21629 km
RCS: 0.1304 m2 (medium)
Launch date: July 25, 1990
Source: United States (US)
Launch site: AIR FORCE EASTERN TEST RANGE (AFETR)

Note: This is SATELLITE DEBRIS
Your satellite tracking list
Your tracking list is empty





NASA's NSSDC Master Catalog

Two Line Element Set (TLE):
1 27051U 90065U   17177.40801077 +.00001927 +00000-0 +69383-3 0  9996
2 27051 017.9240 221.7247 6922344 230.1275 045.1917 02.72925200169614
Source of the keplerian elements: AFSPC